027  
ASUS41 KBGM 131510  
RWRBGM  
 
REGIONAL WEATHER ROUNDUP  
NATIONAL WEATHER SERVICE BINGHAMTON NY  
1100 AM EDT THU AUG 13 2020  
 
NOTE: "FAIR" INDICATES FEW OR NO CLOUDS BELOW 12,000 FEET WITH NO  
SIGNIFICANT WEATHER AND/OR S TO VISIBILITY
.  
 
* = STATION(S) THAT DOES NOT REPORT PRECIPITATION, SUCH AS RAIN,  
SNOW, ETC, ALSO NO THUNDER OR FOG.
 
 
NYZ009-015>018-022>025-036-037-044>046-055>057-062-131600   
..CENTRAL NEW YORK
 
 
 
CITY SKY/WX TMP DP RH WIND PRES REMARKS
 
BINGHAMTON PTSUNNY 69 60 73 NE7 30.19R  
CORTLAND FAIR 77 55 47 NE6 30.18F  
DANSVILLE SUNNY 79 60 52 NW3 30.17F  
ELMIRA SUNNY 77 61 57 CALM 30.16S  
ENDICOTT SUNNY 70 63 78 CALM 30.17S  
ITHACA SUNNY 77 64 64 VRB5 30.18F  
HAMILTON SUNNY 73 61 64 CALM 30.18F  
MONTICELLO PTSUNNY 76 62 62 SE10 30.19R  
NORWICH SUNNY 72 63 73 NE3 30.18F  
ONEONTA SUNNY 73 63 68 CALM 30.20S  
PENN YAN SUNNY 80 54 40 VRB3 30.18S  
ROME PTSUNNY 74 62 66 NW3 30.17S  
SIDNEY SUNNY 72 64 78 CALM 30.18S  
SKANEATELES FAIR 77 61 57 CALM 30.18S  
SYRACUSE PTSUNNY 77 63 61 CALM 30.17S  

 
 
PAZ038>040-043-044-047-048-072-131600   
..NORTHEAST PENNSYLVANIA
 
 
 
CITY SKY/WX TMP DP RH WIND PRES REMARKS
 
HAZLETON CLOUDY 75 63 64 CALM 30.21R  
SCRANTON PTSUNNY 77 63 61 CALM 30.15F  
TOWANDA MOSUNNY 73 63 68 CALM 30.17F  

 

 
KEY  
WCI = WIND CHILL INDEX  
VSB = VISIBILITY  
HX = HEAT INDEX  

 
 
 
CLICK HERE TO GO TO PREVIOUS BULLETINS.

The Nexlab NY Page
The Nexlab PA Page Main Text Page